Terminal Aerodrome Forecast
Issued by NWS

Home | Current Version | Previous Version | Graphics & Text | Print | Product List | Glossary Off
Versions: 1 2 3 4 5 6 7 8 9 10 11 12 13 14 15 16 17 18 19 20 21 22 23 24 25 26 27 28 29 30

000
FTUS43 KDDC 211100
TAFGCK
TAF
KGCK 211120Z 2112/2212 20010KT P6SM SCT250
     FM211600 21016G24KT P6SM SCT090
     FM220200 18011KT P6SM BKN090=

USA.gov is the U.S. government's official web portal to all federal, state and local government web resources and services.